| time (UTC) | temp C | wind direction | speed KPH | gust KPH | rain 1hr cm | rain 24hr cm | rain mn cm | humidity % | barometer mb |
| 20260504044546 | 14 | 267 | 0.0 | 0.0 | 0.00 | 0.00 | 0.00 | 40 | 1002.9 |
| 20260504043037 | 14 | 290 | 0.0 | 0.0 | 0.00 | 0.00 | 0.00 | 42 | 1002.9 |
| 20260504041533 | 15 | 296 | 0.0 | 0.0 | 0.00 | 0.00 | 0.00 | 44 | 1002.6 |
| 20260504040034 | 15 | 234 | 0.0 | 0.0 | 0.00 | 0.00 | 0.00 | 46 | 1002.8 |
| 20260504034524 | 15 | 234 | 0.0 | 0.0 | 0.00 | 0.00 | 0.00 | 47 | 1002.9 |
| 20260504033020 | 15 | 269 | 0.0 | 0.0 | 0.00 | 0.00 | 0.00 | 48 | 1003.1 |
| 20260504031516 | 15 | 270 | 0.0 | 0.0 | 0.00 | 0.00 | 0.00 | 49 | 1003.2 |
| 20260504030011 | 15 | 270 | 0.0 | 0.0 | 0.00 | 0.00 | 0.00 | 49 | 1003.3 |
| 20260504024508 | 16 | 270 | 0.0 | 0.0 | 0.00 | 0.00 | 0.00 | 49 | 1003.3 |
| 20260504023003 | 16 | 315 | 0.0 | 0.0 | 0.00 | 0.00 | 0.00 | 49 | 1003.3 |
| 20260504021559 | 16 | 288 | 0.0 | 0.0 | 0.00 | 0.00 | 0.00 | 49 | 1003.2 |
| 20260504020106 | 16 | 236 | 0.0 | 0.0 | 0.00 | 0.00 | 0.00 | 49 | 1003.1 |
| 20260504014555 | 17 | 290 | 0.0 | 0.0 | 0.00 | 0.00 | 0.00 | 49 | 1002.8 |
| 20260504013052 | 17 | 255 | 0.0 | 0.0 | 0.00 | 0.00 | 0.00 | 49 | 1002.7 |
| 20260504011541 | 17 | 235 | 0.0 | 0.0 | 0.00 | 0.00 | 0.00 | 48 | 1002.5 |
| 20260504010037 | 18 | 315 | 1.6 | 0.0 | 0.00 | 0.00 | 0.00 | 47 | 1002.5 |
| 20260504004533 | 18 | 254 | 0.0 | 0.0 | 0.00 | 0.00 | 0.00 | 46 | 1002.5 |
| 20260504003027 | 19 | 292 | 0.0 | 0.0 | 0.00 | 0.00 | 0.00 | 45 | 1002.6 |
| 20260504001523 | 19 | 321 | 1.6 | 0.0 | 0.00 | 0.00 | 0.00 | 44 | 1002.6 |
| 20260504000019 | 19 | 332 | 1.6 | 0.0 | 0.00 | 0.00 | 0.00 | 43 | 1002.7 |
| 20260503234515 | 20 | 218 | 3.2 | 0.0 | 0.00 | 0.00 | 0.00 | 42 | 1002.7 |
| 20260503233010 | 20 | 265 | 3.2 | 0.0 | 0.00 | 0.00 | 0.00 | 42 | 1002.7 |
| 20260503231506 | 20 | 330 | 1.6 | 0.0 | 0.00 | 0.00 | 0.00 | 41 | 1002.7 |
| 20260503230002 | 20 | 340 | 3.2 | 0.0 | 0.00 | 0.00 | 0.00 | 41 | 1002.8 |
| 20260503224558 | 20 | 228 | 1.6 | 0.0 | 0.00 | 0.00 | 0.00 | 42 | 1003.0 |
| 20260503223053 | 20 | 328 | 1.6 | 0.0 | 0.00 | 0.00 | 0.00 | 41 | 1003.1 |
| 20260503221549 | 19 | 290 | 3.2 | 0.0 | 0.00 | 0.00 | 0.00 | 42 | 1003.2 |
| 20260503220045 | 19 | 294 | 3.2 | 0.0 | 0.00 | 0.00 | 0.00 | 41 | 1003.3 |
| 20260503214540 | 19 | 322 | 3.2 | 0.0 | 0.00 | 0.00 | 0.00 | 42 | 1003.4 |
| 20260503213042 | 19 | 231 | 3.2 | 0.0 | 0.00 | 0.00 | 0.00 | 42 | 1003.8 |
| 20260503211536 | 20 | 227 | 4.8 | 0.0 | 0.00 | 0.00 | 0.00 | 39 | 1004.1 |
| 20260503210027 | 20 | 296 | 4.8 | 0.0 | 0.00 | 0.00 | 0.00 | 37 | 1004.3 |
| 20260503204522 | 20 | 311 | 3.2 | 0.0 | 0.00 | 0.00 | 0.00 | 38 | 1004.6 |
| 20260503203018 | 20 | 328 | 4.8 | 0.0 | 0.00 | 0.00 | 0.00 | 36 | 1005.1 |
| 20260503201514 | 20 | 221 | 3.2 | 0.0 | 0.00 | 0.00 | 0.00 | 36 | 1005.2 |
| 20260503200010 | 19 | 227 | 4.8 | 0.0 | 0.00 | 0.00 | 0.00 | 38 | 1005.3 |
| 20260503194505 | 18 | 311 | 3.2 | 0.0 | 0.00 | 0.00 | 0.00 | 40 | 1005.5 |
| 20260503193000 | 18 | 236 | 4.8 | 0.0 | 0.00 | 0.00 | 0.00 | 39 | 1005.7 |
| 20260503191559 | 17 | 271 | 3.2 | 0.0 | 0.00 | 0.00 | 0.00 | 38 | 1005.9 |
| 20260503190105 | 15 | 259 | 4.8 | 0.0 | 0.00 | 0.00 | 0.00 | 36 | 1006.1 |
| 20260503184548 | 14 | 227 | 4.8 | 0.0 | 0.00 | 0.00 | 0.00 | 32 | 1006.5 |
| 20260503183056 | 13 | 304 | 4.8 | 0.0 | 0.00 | 0.00 | 0.00 | 28 | 1006.8 |
| 20260503181539 | 12 | 238 | 3.2 | 0.0 | 0.00 | 0.00 | 0.00 | 20 | 1007.3 |
| 20260503180046 | 11 | 240 | 3.2 | 0.0 | 0.00 | 0.00 | 0.00 | 6 | 1007.6 |
| 20260503174531 | 11 | 232 | 1.6 | 0.0 | 0.00 | 0.00 | 0.00 | 100 | 1008.2 |
| 20260503173026 | 11 | 243 | 1.6 | 0.0 | 0.00 | 0.00 | 0.00 | 100 | 1008.7 |
| 20260503171533 | 11 | 223 | 3.2 | 0.0 | 0.00 | 0.00 | 0.00 | 100 | 1009.5 |
| 20260503100110 | 6 | 256 | 0.0 | 0.0 | 0.00 | 0.00 | 0.00 | 49 | 1011.3 |
| 20260503081554 | 7 | 305 | 0.0 | 0.0 | 0.00 | 0.00 | 0.00 | 51 | 1012.1 |
| 20260503071600 | 7 | 297 | 0.0 | 0.0 | 0.00 | 0.00 | 0.00 | 50 | 1012.3 |